GW4990 Weather Reports


time (UTC)temp
C
wind
direction
speed
KPH
gust
KPH
rain 1hr
cm
rain 24hr
cm
rain mn
cm
humidity
%
barometer
mb
20260509054304 30 336 0.0 0.0 0.00 0.00 0.00 83 1017.0
20260509053804 30 79 0.0 0.0 0.00 0.00 0.00 84 1017.0
20260509053305 30 49 0.0 0.0 0.00 0.00 0.00 84 1017.0
20260509052805 30 89 0.0 0.0 0.00 0.00 0.00 84 1017.0
20260509052307 31 82 0.0 0.0 0.00 0.00 0.00 82 1017.0
20260509051805 30 52 0.0 0.0 0.00 0.00 0.00 84 1017.0
20260509051305 30 19 0.0 0.0 0.00 0.00 0.00 84 1017.0
20260509050805 30 78 0.0 0.0 0.00 0.00 0.00 84 1017.0
20260509050304 30 78 0.0 0.0 0.00 0.00 0.00 85 1017.0
20260509045805 29 65 0.0 0.0 0.00 0.00 0.00 86 1017.0
20260509045306 30 59 0.0 0.0 0.00 0.00 0.00 85 1017.0
20260509044804 30 0 0.0 0.0 0.00 0.00 0.00 84 1017.0
20260509044304 30 68 0.0 0.0 0.00 0.00 0.00 84 1017.0
20260509043804 30 152 0.0 0.0 0.00 0.00 0.00 85 1017.0
20260509043305 29 90 0.0 0.0 0.00 0.00 0.00 86 1017.0
20260509042804 28 40 0.0 0.0 0.00 0.00 0.00 87 1017.0
20260509042307 28 58 0.0 0.0 0.00 0.00 0.00 86 1017.0
20260509041805 28 71 0.0 0.0 0.00 0.00 0.00 86 1017.0
20260509041304 28 30 0.0 0.0 0.00 0.00 0.00 86 1017.0
20260509040808 28 47 0.0 0.0 0.00 0.00 0.00 87 1017.0
20260509040305 28 80 0.0 0.0 0.00 0.00 0.00 87 1017.0
20260509035804 28 41 0.0 0.0 0.00 0.00 0.00 87 1017.0
20260509035306 28 85 0.0 0.0 0.00 0.00 0.00 87 1017.0
20260509034804 28 81 0.0 0.0 0.00 0.00 0.00 87 1017.0
20260509034304 28 58 0.0 0.0 0.00 0.00 0.00 87 1017.0
20260509033804 27 114 0.0 0.0 0.00 0.00 0.00 87 1017.0
20260509032816 27 57 0.0 0.0 0.00 0.00 0.00 87 1017.0
20260509032306 27 51 0.0 0.0 0.00 0.00 0.00 88 1017.0
20260509031804 27 49 0.0 0.0 0.00 0.00 0.00 89 1017.0
20260509031304 27 1 0.0 0.0 0.00 0.00 0.00 90 1017.0
20260509030804 27 54 0.0 0.0 0.00 0.00 0.00 90 1017.0
20260509030305 27 5 0.0 0.0 0.00 0.00 0.00 92 1017.0
20260509025805 27 59 0.0 0.0 0.00 0.00 0.00 93 1017.0
20260509025306 27 61 0.0 0.0 0.00 0.00 0.00 94 1017.0
20260509024804 27 59 0.0 0.0 0.00 0.00 0.00 95 1017.0
20260509024304 27 45 0.0 0.0 0.00 0.00 0.00 95 1017.0
20260509023805 27 346 0.0 0.0 0.00 0.00 0.00 94 1017.0
20260508181805 28 102 0.0 0.0 0.00 0.00 0.00 87 1016.0
20260508181305 28 112 0.0 0.0 0.00 0.00 0.00 87 1016.0
20260508180805 28 113 0.0 0.0 0.00 0.00 0.00 87 1016.0
20260508180305 28 114 0.0 0.0 0.00 0.00 0.00 87 1016.0
20260508175805 28 89 0.0 0.0 0.00 0.00 0.00 86 1016.0
20260508175306 28 95 0.0 0.0 0.00 0.00 0.00 86 1016.0
20260508174805 28 72 0.0 0.0 0.00 0.00 0.00 86 1016.0
20260508174307 28 75 0.0 0.0 0.00 0.00 0.00 86 1016.0
20260508173806 28 87 0.0 0.0 0.00 0.00 0.00 86 1016.0
20260508173304 28 101 0.0 0.0 0.00 0.00 0.00 85 1016.0
20260508172805 28 103 0.0 0.0 0.00 0.00 0.00 85 1016.0
20260508172307 28 74 0.0 0.0 0.00 0.00 0.00 85 1016.0
20260508171806 28 57 0.0 0.0 0.00 0.00 0.00 85 1017.0
20260508171307 28 64 0.0 0.0 0.00 0.00 0.00 85 1016.0
20260508170805 28 69 0.0 0.0 0.00 0.00 0.00 86 1017.0
20260508170307 28 97 0.0 0.0 0.00 0.00 0.00 85 1017.0
20260508165806 28 99 0.0 0.0 0.00 0.00 0.00 86 1017.0
20260508165306 28 129 0.0 0.0 0.00 0.00 0.00 85 1016.0
20260508164805 28 85 0.0 0.0 0.00 0.00 0.00 85 1016.0
20260508164304 28 107 0.0 0.0 0.00 0.00 0.00 85 1017.0
20260508163807 28 97 0.0 0.0 0.00 0.00 0.00 85 1016.0
20260508163306 28 163 0.0 0.0 0.00 0.00 0.00 85 1016.0
20260508162807 28 88 0.0 0.0 0.00 0.00 0.00 85 1016.0
20260508162307 28 86 0.0 0.0 0.00 0.00 0.00 86 1016.0
20260508161808 28 29 0.0 0.0 0.00 0.00 0.00 87 1016.0
20260508161308 28 82 0.0 0.0 0.00 0.00 0.00 88 1016.0
20260508160806 28 105 0.0 0.0 0.00 0.00 0.00 89 1016.0
20260508160305 28 116 0.0 0.0 0.00 0.00 0.00 89 1016.0
20260508155805 28 94 0.0 0.0 0.00 0.00 0.00 89 1016.0
20260508155306 28 98 0.0 0.0 0.00 0.00 0.00 90 1016.0
20260508154807 28 117 0.0 0.0 0.00 0.00 0.00 91 1016.0
20260508154307 28 82 0.0 0.0 0.00 0.00 0.00 91 1016.0
20260508153807 28 90 0.0 0.0 0.00 0.00 0.00 91 1016.0
20260508153306 28 96 0.0 0.0 0.00 0.00 0.00 91 1016.0
20260508152805 28 60 0.0 0.0 0.00 0.00 0.00 90 1016.0
20260508152306 28 48 0.0 0.0 0.00 0.00 0.00 90 1016.0
20260508151805 28 31 0.0 0.0 0.00 0.00 0.00 89 1016.0
20260508151305 28 121 0.0 0.0 0.00 0.00 0.00 88 1016.0
20260508150806 28 107 0.0 0.0 0.00 0.00 0.00 88 1016.0
20260508150305 28 119 0.0 0.0 0.00 0.00 0.00 88 1016.0
20260508145804 28 61 0.0 0.0 0.00 0.00 0.00 88 1016.0
20260508145307 28 39 0.0 0.0 0.00 0.00 0.00 87 1016.0
20260508144805 28 74 0.0 0.0 0.00 0.00 0.00 86 1016.0
20260508144304 28 147 0.0 0.0 0.00 0.00 0.00 88 1016.0
20260508143804 28 72 0.0 0.0 0.00 0.00 0.00 89 1016.0
20260508143304 28 100 0.0 0.0 0.00 0.00 0.00 89 1016.0
20260508142805 28 82 0.0 0.0 0.00 0.00 0.00 89 1016.0
20260508142306 29 92 0.0 0.0 0.00 0.00 0.00 87 1016.0
20260508141804 29 41 0.0 0.0 0.00 0.00 0.00 85 1016.0
20260508141305 29 103 0.0 0.0 0.00 0.00 0.00 85 1016.0
20260508140805 29 171 0.0 0.0 0.00 0.00 0.00 85 1015.0
20260508140305 29 134 0.0 0.0 0.00 0.00 0.00 85 1015.0
20260508135805 29 51 0.0 0.0 0.00 0.00 0.00 85 1015.0
20260508135306 29 66 0.0 0.0 0.00 0.00 0.00 85 1015.0
20260508134804 29 73 0.0 0.0 0.00 0.00 0.00 85 1015.0
20260508134306 29 46 0.0 0.0 0.00 0.00 0.00 84 1015.0
20260508133805 29 101 0.0 0.0 0.00 0.00 0.00 84 1015.0
20260508133304 29 38 0.0 0.0 0.00 0.00 0.00 83 1015.0
20260508132805 29 77 0.0 0.0 0.00 0.00 0.00 83 1015.0
20260508132306 29 90 0.0 0.0 0.00 0.00 0.00 83 1015.0
20260508131806 29 70 0.0 0.0 0.00 0.00 0.00 83 1015.0
20260508131305 29 91 0.0 0.0 0.00 0.00 0.00 83 1015.0
20260508130804 29 19 0.0 0.0 0.00 0.00 0.00 83 1015.0
20260508130305 29 64 0.0 0.0 0.00 0.00 0.00 84 1015.0
20260508125805 30 75 0.0 0.0 0.00 0.00 0.00 83 1015.0
20260508125306 30 53 0.0 0.0 0.00 0.00 0.00 82 1015.0
20260508124804 30 14 0.0 0.0 0.00 0.00 0.00 82 1014.0
20260508124306 30 78 0.0 0.0 0.00 0.00 0.00 82 1015.0
20260508123804 30 118 0.0 0.0 0.00 0.00 0.00 82 1015.0
20260508123305 30 65 0.0 0.0 0.00 0.00 0.00 81 1015.0
20260508122806 30 75 0.0 0.0 0.00 0.00 0.00 81 1014.0
20260508122307 30 100 0.0 0.0 0.00 0.00 0.00 80 1014.0
20260508121804 30 72 0.0 0.0 0.00 0.00 0.00 79 1014.0
20260508121305 30 114 0.0 0.0 0.00 0.00 0.00 79 1014.0
20260508120804 30 37 0.0 0.0 0.00 0.00 0.00 79 1014.0
20260508120304 30 110 0.0 0.0 0.00 0.00 0.00 78 1014.0
20260508115804 30 70 0.0 0.0 0.00 0.00 0.00 79 1014.0
20260508115306 30 125 0.0 0.0 0.00 0.00 0.00 79 1014.0
20260508114804 30 157 0.0 0.0 0.00 0.00 0.00 78 1014.0
20260508114305 30 130 0.0 0.0 0.00 0.00 0.00 78 1014.0
20260508113805 30 112 0.0 0.0 0.00 0.00 0.00 78 1014.0
20260508113304 30 53 0.0 0.0 0.00 0.00 0.00 78 1014.0
20260508112805 30 129 0.0 0.0 0.00 0.00 0.00 79 1014.0
20260508112307 30 109 0.0 0.0 0.00 0.00 0.00 80 1014.0
20260508111805 30 83 0.0 0.0 0.00 0.00 0.00 78 1014.0
20260508111304 30 27 0.0 0.0 0.00 0.00 0.00 78 1014.0
20260508110805 30 59 0.0 0.0 0.00 0.00 0.00 78 1014.0
20260508110304 31 157 0.0 0.0 0.00 0.00 0.00 77 1014.0
20260508105813 31 49 0.0 0.0 0.00 0.00 0.00 76 1014.0
20260508105306 31 88 0.0 0.0 0.00 0.00 0.00 77 1014.0
20260508104804 31 87 0.0 0.0 0.00 0.00 0.00 75 1014.0
20260508104304 31 53 0.0 0.0 0.00 0.00 0.00 71 1014.0
20260508103805 31 119 0.0 0.0 0.00 0.00 0.00 69 1014.0
20260508103306 32 72 0.0 0.0 0.00 0.00 0.00 67 1014.0
20260508102805 31 112 0.0 0.0 0.00 0.00 0.00 69 1014.0
20260508102306 31 87 0.0 0.0 0.00 0.00 0.00 69 1014.0
20260508101804 31 85 0.0 0.0 0.00 0.00 0.00 69 1014.0
20260508101306 31 73 0.0 0.0 0.00 0.00 0.00 69 1014.0
20260508100807 31 41 0.0 0.0 0.00 0.00 0.00 69 1014.0
20260508100306 32 106 0.0 0.0 0.00 0.00 0.00 70 1014.0
20260508095805 31 71 0.0 0.0 0.00 0.00 0.00 72 1014.0
20260508095307 31 77 0.0 0.0 0.00 0.00 0.00 74 1014.0
20260508094804 31 82 0.0 0.0 0.00 0.00 0.00 74 1014.0
20260508094305 31 47 0.0 0.0 0.00 0.00 0.00 75 1014.0
20260508093805 31 58 0.0 0.0 0.00 0.00 0.00 75 1014.0
20260508093305 31 111 0.0 0.0 0.00 0.00 0.00 74 1014.0
20260508092805 31 353 0.0 0.0 0.00 0.00 0.00 74 1014.0
20260508092312 31 35 0.0 0.0 0.00 0.00 0.00 78 1014.0
20260508091805 31 27 0.0 0.0 0.00 0.00 0.00 76 1014.0
20260508091304 31 104 0.0 0.0 0.00 0.00 0.00 76 1014.0
20260508090804 31 74 0.0 0.0 0.00 0.00 0.00 74 1014.0
20260508090304 31 99 0.0 0.0 0.00 0.00 0.00 74 1014.0
20260508085805 31 79 0.0 0.0 0.00 0.00 0.00 74 1014.0
20260508085307 31 9 0.0 0.0 0.00 0.00 0.00 74 1014.0
20260508084805 31 78 0.0 0.0 0.00 0.00 0.00 75 1014.0
20260508084306 31 72 0.0 0.0 0.00 0.00 0.00 73 1014.0
20260508083805 31 18 0.0 0.0 0.00 0.00 0.00 75 1014.0
20260508083304 31 8 0.0 0.0 0.00 0.00 0.00 75 1014.0
20260508082806 31 106 0.0 0.0 0.00 0.00 0.00 74 1014.0
20260508082306 31 65 0.0 0.0 0.00 0.00 0.00 75 1014.0
20260508081806 31 54 0.0 0.0 0.00 0.00 0.00 75 1014.0
20260508081305 31 74 0.0 0.0 0.00 0.00 0.00 76 1015.0
20260508080804 31 77 0.0 0.0 0.00 0.00 0.00 78 1015.0
20260508080305 31 136 0.0 0.0 0.00 0.00 0.00 77 1015.0
20260508075804 31 146 0.0 0.0 0.00 0.00 0.00 78 1015.0
20260508075308 31 98 0.0 0.0 0.00 0.00 0.00 79 1015.0
20260508074804 31 83 0.0 0.0 0.00 0.00 0.00 78 1015.0
20260508074304 31 42 0.0 0.0 0.00 0.00 0.00 79 1015.0
20260508073806 31 84 0.0 0.0 0.00 0.00 0.00 79 1015.0
20260508073305 30 162 0.0 0.0 0.00 0.00 0.00 80 1015.0
20260508072805 31 65 0.0 0.0 0.00 0.00 0.00 79 1015.0
20260508072307 30 116 0.0 0.0 0.00 0.00 0.00 80 1015.0
20260508071805 30 81 0.0 0.0 0.00 0.00 0.00 80 1015.0
20260508071305 31 86 0.0 0.0 0.00 0.00 0.00 78 1015.0
20260508070808 31 106 0.0 0.0 0.00 0.00 0.00 78 1016.0
20260508070305 31 114 0.0 0.0 0.00 0.00 0.00 79 1016.0
20260508065804 31 131 0.0 0.0 0.00 0.00 0.00 79 1016.0
20260508065307 31 19 0.0 0.0 0.00 0.00 0.00 79 1016.0
20260508064805 31 100 0.0 0.0 0.00 0.00 0.00 80 1016.0
20260508064304 31 74 0.0 0.0 0.00 0.00 0.00 81 1016.0
20260508063804 30 77 0.0 0.0 0.00 0.00 0.00 80 1016.0
20260508063305 31 165 0.0 0.0 0.00 0.00 0.00 81 1016.0
20260508062805 31 44 0.0 0.0 0.00 0.00 0.00 80 1016.0
20260508062306 31 109 0.0 0.0 0.00 0.00 0.00 82 1016.0
20260508061804 31 21 0.0 0.0 0.00 0.00 0.00 81 1016.0
20260508061305 31 129 0.0 0.0 0.00 0.00 0.00 81 1016.0
20260508060804 31 119 0.0 0.0 0.00 0.00 0.00 79 1017.0
20260508060305 31 87 0.0 0.0 0.00 0.00 0.00 79 1016.0
20260508055805 31 65 0.0 0.0 0.00 0.00 0.00 80 1016.0
20260508055306 32 70 0.0 0.0 0.00 0.00 0.00 80 1016.0
20260508054805 31 79 0.0 0.0 0.00 0.00 0.00 81 1016.0